CW3517 Weather Reports


Display with metric or nautical units.
time (UTC)temp
F
wind
direction
speed
MPH
gust
MPH
rain 1hr
in
rain 24hr
in
rain mn
in
humidity
%
barometer
mb
20260507161003 62 162 5.0 14.0 0.00 0.00 0.00 54 1014.1
20260507160003 62 162 7.0 13.0 0.00 0.00 0.00 50 1014.1
20260507155217 62 146 8.0 15.0 0.00 0.00 0.00 49 1014.2
20260507154003 63 166 5.0 15.0 0.00 0.00 0.00 49 1014.2
20260507153003 63 153 8.0 14.0 0.00 0.00 0.00 49 1014.2
20260507152003 62 154 5.0 15.0 0.00 0.00 0.00 55 1014.2
20260507151217 62 159 4.0 10.0 0.00 0.00 0.00 55 1014.2
20260507150003 62 168 5.0 10.0 0.00 0.00 0.00 54 1014.3
20260507145003 62 166 5.0 13.0 0.00 0.00 0.00 53 1014.4
20260507144003 62 173 4.0 12.0 0.00 0.00 0.00 54 1014.4
20260507143003 62 168 7.0 13.0 0.00 0.00 0.00 54 1014.6
20260507142003 63 176 5.0 15.0 0.00 0.00 0.00 54 1014.6
20260507141003 63 163 7.0 14.0 0.00 0.00 0.00 54 1014.8
20260507140003 62 177 7.0 13.0 0.00 0.00 0.00 58 1014.7
20260507135003 62 163 5.0 15.0 0.00 0.00 0.00 55 1014.7
20260507134004 62 152 8.0 15.0 0.00 0.00 0.00 56 1014.7
20260507133219 62 158 8.0 15.0 0.00 0.00 0.00 52 1014.7
20260507132003 62 154 7.0 16.0 0.00 0.00 0.00 59 1014.7
20260507131003 62 165 8.0 13.0 0.00 0.00 0.00 56 1014.7
20260507130003 61 170 4.0 8.0 0.00 0.00 0.00 64 1014.8
20260507125003 60 189 4.0 9.0 0.00 0.00 0.00 68 1014.8
20260507124003 58 173 5.0 12.0 0.00 0.00 0.00 64 1014.8
20260507123003 57 163 5.0 10.0 0.00 0.00 0.00 67 1014.9
20260507122003 57 178 4.0 8.0 0.00 0.00 0.00 67 1015.0
20260507121003 57 151 7.0 13.0 0.00 0.00 0.00 68 1015.0
20260507120003 58 155 5.0 14.0 0.00 0.00 0.00 67 1015.0
20260507115003 59 169 5.0 10.0 0.00 0.00 0.00 71 1015.0
20260507114003 59 180 4.0 10.0 0.00 0.00 0.00 69 1015.0
20260507113003 60 180 4.0 13.0 0.00 0.00 0.00 68 1015.0
20260507112004 61 154 7.0 14.0 0.00 0.00 0.00 70 1015.0
20260507111003 61 170 7.0 13.0 0.00 0.00 0.00 65 1015.0
20260507110003 61 163 8.0 16.0 0.00 0.00 0.00 67 1015.0
20260507105003 61 170 8.0 14.0 0.00 0.00 0.00 69 1015.0
20260507104003 62 155 9.0 18.0 0.00 0.00 0.00 64 1015.0
20260507103003 61 170 7.0 13.0 0.00 0.00 0.00 65 1015.1
20260507102217 61 193 5.0 12.0 0.00 0.00 0.00 64 1015.0
20260507101003 59 146 5.0 14.0 0.00 0.00 0.00 71 1015.1
20260507100003 60 147 7.0 14.0 0.00 0.00 0.00 68 1015.2
20260507095003 59 186 3.0 9.0 0.00 0.00 0.00 71 1015.1
20260507094003 58 186 4.0 10.0 0.00 0.00 0.00 71 1015.0
20260507093003 58 205 4.0 9.0 0.00 0.00 0.00 74 1015.0
20260507092003 58 192 4.0 9.0 0.00 0.00 0.00 74 1015.0
20260507091217 58 196 4.0 9.0 0.00 0.00 0.00 74 1015.0
20260507090005 57 153 5.0 12.0 0.00 0.00 0.00 76 1015.0
20260507085217 57 162 4.0 12.0 0.00 0.00 0.00 78 1015.0
20260507084217 56 171 4.0 12.0 0.00 0.00 0.00 77 1015.0
20260507083003 56 132 7.0 12.0 0.00 0.00 0.00 77 1015.1
20260507082003 55 154 5.0 10.0 0.00 0.00 0.00 83 1015.1
20260507081003 54 160 3.0 8.0 0.00 0.00 0.00 84 1015.1
20260507080003 54 157 2.0 6.0 0.00 0.00 0.00 83 1015.1
20260507075003 53 147 2.0 4.0 0.00 0.00 0.00 86 1015.1
20260507074216 52 146 2.0 4.0 0.00 0.00 0.00 87 1015.1
20260507073003 51 143 1.0 3.0 0.00 0.00 0.00 87 1015.0
20260507072003 51 141 1.0 3.0 0.00 0.00 0.00 87 1014.9
20260507071003 50 92 1.0 2.0 0.00 0.00 0.00 88 1014.8
20260507070005 49 0 0.0 2.0 0.00 0.00 0.00 90 1014.8
20260507065003 48 0 0.0 0.0 0.00 0.00 0.00 90 1014.8
20260507064003 48 0 0.0 0.0 0.00 0.00 0.00 90 1014.7
20260507063003 48 0 0.0 1.0 0.00 0.00 0.00 91 1014.6
20260507062004 47 0 0.0 1.0 0.00 0.00 0.00 91 1014.6
20260507061003 47 0 0.0 2.0 0.00 0.00 0.00 92 1014.5
20260507060003 46 56 1.0 3.0 0.00 0.00 0.00 93 1014.5
20260507055003 46 0 0.0 2.0 0.00 0.00 0.00 93 1014.5
20260507054003 45 0 0.0 0.0 0.00 0.00 0.00 93 1014.4
20260507053005 46 0 0.0 2.0 0.00 0.00 0.00 93 1014.4
20260507052003 46 0 0.0 2.0 0.00 0.00 0.00 94 1014.4
20260507051217 46 0 0.0 0.0 0.00 0.00 0.00 94 1014.4
20260507050003 45 0 0.0 0.0 0.00 0.00 0.00 94 1014.4
20260507045217 45 0 0.0 0.0 0.00 0.00 0.00 93 1014.4
20260507044003 46 0 0.0 0.0 0.00 0.00 0.00 93 1014.4
20260507043004 45 0 0.0 0.0 0.00 0.00 0.00 94 1014.4
20260507042003 45 0 0.0 0.0 0.00 0.00 0.00 93 1014.3
20260507041003 45 0 0.0 0.0 0.00 0.00 0.00 93 1014.2
20260507040003 45 0 0.0 0.0 0.00 0.00 0.00 92 1014.2
20260507035003 45 0 0.0 0.0 0.00 0.00 0.00 92 1014.1
20260507034003 45 0 0.0 0.0 0.00 0.00 0.00 91 1014.2
20260507033003 45 0 0.0 0.0 0.00 0.00 0.00 91 1014.1
20260507032003 46 0 0.0 0.0 0.00 0.00 0.00 90 1014.0
20260507031003 46 0 0.0 0.0 0.00 0.00 0.00 90 1014.0
20260507030004 46 0 0.0 1.0 0.00 0.00 0.00 89 1014.0
20260507025003 47 37 2.0 4.0 0.00 0.00 0.00 89 1014.0
20260507024003 47 37 2.0 5.0 0.00 0.00 0.00 89 1013.9
20260507023003 47 32 2.0 5.0 0.00 0.00 0.00 89 1013.9
20260507022003 47 0 0.0 0.0 0.00 0.00 0.00 90 1013.9
20260507021003 47 0 0.0 0.0 0.00 0.00 0.00 90 1013.8
20260507020003 48 0 0.0 0.0 0.00 0.00 0.00 88 1013.8
20260507015004 48 0 0.0 0.0 0.00 0.00 0.00 87 1013.9
20260507014003 48 29 1.0 3.0 0.00 0.00 0.00 87 1013.9
20260507013003 48 29 2.0 3.0 0.00 0.00 0.00 87 1013.9
20260507012003 48 36 2.0 4.0 0.00 0.00 0.00 86 1013.9
20260507011218 49 39 2.0 4.0 0.00 0.00 0.00 87 1013.9
20260507010003 49 38 3.0 5.0 0.00 0.00 0.00 86 1013.9
20260507005003 49 69 2.0 5.0 0.00 0.00 0.00 87 1014.0
20260507004218 49 0 0.0 3.0 0.00 0.00 0.00 87 1013.9
20260507003218 49 0 0.0 0.0 0.00 0.00 0.00 87 1014.0
20260507002003 49 0 0.0 0.0 0.00 0.00 0.00 86 1014.1
20260507001003 49 0 0.0 0.0 0.00 0.00 0.00 85 1014.1
20260507000003 49 0 0.0 0.0 0.00 0.00 0.00 84 1014.2
20260506235003 49 0 0.0 0.0 0.00 0.00 0.00 84 1014.2
20260506234003 49 0 0.0 0.0 0.00 0.00 0.00 84 1014.2
20260506233003 49 0 0.0 0.0 0.00 0.00 0.00 84 1014.1
20260506232003 49 0 0.0 0.0 0.00 0.00 0.00 84 1014.1
20260506231003 49 0 0.0 0.0 0.00 0.00 0.00 84 1014.1
20260506230003 49 0 0.0 0.0 0.00 0.00 0.00 85 1014.2
20260506225003 49 0 0.0 0.0 0.00 0.00 0.00 84 1014.2
20260506224003 50 0 0.0 0.0 0.00 0.00 0.00 83 1014.2
20260506223003 50 0 0.0 0.0 0.00 0.00 0.00 82 1014.2
20260506222003 50 0 0.0 0.0 0.00 0.00 0.00 81 1014.2
20260506221003 50 0 0.0 0.0 0.00 0.00 0.00 81 1014.1
20260506220003 50 0 0.0 0.0 0.00 0.00 0.00 79 1014.1
20260506215003 50 0 0.0 0.0 0.00 0.00 0.00 80 1014.0
20260506214003 50 0 0.0 0.0 0.00 0.00 0.00 80 1014.1
20260506213003 50 0 0.0 0.0 0.00 0.00 0.00 79 1014.1
20260506212216 50 0 0.0 0.0 0.00 0.00 0.00 78 1014.1
20260506211004 51 0 0.0 0.0 0.00 0.00 0.00 78 1014.1
20260506210003 51 0 0.0 0.0 0.00 0.00 0.00 77 1014.0
20260506205003 51 0 0.0 0.0 0.00 0.00 0.00 78 1014.0
20260506204216 51 0 0.0 0.0 0.00 0.00 0.00 78 1013.9
20260506203218 52 0 0.0 0.0 0.00 0.00 0.00 79 1013.9
20260506202218 52 0 0.0 0.0 0.00 0.00 0.00 78 1013.9
20260506201003 52 0 0.0 0.0 0.00 0.00 0.00 78 1013.8
20260506200003 52 0 0.0 0.0 0.00 0.00 0.00 77 1013.7
20260506195218 53 0 0.0 0.0 0.00 0.00 0.00 75 1013.7
20260506194218 53 0 0.0 2.0 0.00 0.00 0.00 74 1013.6
20260506193003 53 0 0.0 3.0 0.00 0.00 0.00 73 1013.5
20260506192003 54 0 0.0 2.0 0.00 0.00 0.00 73 1013.5
20260506191218 54 242 1.0 3.0 0.00 0.00 0.00 72 1013.5
20260506190003 54 243 1.0 4.0 0.00 0.00 0.00 71 1013.4
20260506185003 54 250 2.0 5.0 0.00 0.00 0.00 69 1013.5
20260506184003 55 252 2.0 4.0 0.00 0.00 0.00 68 1013.4
20260506183003 55 251 2.0 5.0 0.00 0.00 0.00 69 1013.4
20260506182003 56 246 2.0 5.0 0.00 0.00 0.00 68 1013.4
20260506181003 56 257 2.0 4.0 0.00 0.00 0.00 67 1013.3
20260506180217 56 254 2.0 6.0 0.00 0.00 0.00 66 1013.3
20260506175217 57 245 3.0 5.0 0.00 0.00 0.00 64 1013.2
20260506174219 57 240 2.0 4.0 0.00 0.00 0.00 63 1013.1
20260506173003 58 209 1.0 3.0 0.00 0.00 0.00 61 1013.1
20260506172003 58 0 0.0 0.0 0.00 0.00 0.00 61 1013.0
20260506171003 58 194 1.0 3.0 0.00 0.00 0.00 57 1013.0
20260506170217 58 194 1.0 4.0 0.00 0.00 0.00 63 1012.9
20260506165003 58 191 1.0 3.0 0.00 0.00 0.00 59 1012.9
20260506164003 58 181 2.0 6.0 0.00 0.00 0.00 62 1013.0
20260506163003 58 207 2.0 6.0 0.00 0.00 0.00 61 1013.0